Weather History for Branson, MO

Change the Weather History Date:

Thursday, April 18, 2013

  Actual Average (KHRO) Record (KHRO)
Temperature  
Mean Temperature 57 °F 59 °F  
Max Temperature 75 °F 70 °F 92 °F (2006)
Min Temperature 39 °F 48 °F 30 °F (2001)
Degree Days  
Heating Degree Days 8 7  
Month to date heating degree days 171  
Since 1 July heating degree days 3851  
Cooling Degree Days 0 1  
Month to date cooling degree days 18  
Year to date cooling degree days 24  
Growing Degree Days 7 (Base 50)    
Moisture  
Dew Point 51 °F    
Average Humidity 77    
Maximum Humidity 100    
Minimum Humidity 61    
Precipitation  
Precipitation 0.58 in 0.15 in 2.02 in (1927)
Month to date precipitation 2.38  
Year to date precipitation 11.37  
Snow  
Snow 0.00 in 0.00 in T in (1938)
Month to date snowfall 0.3  
Since 1 July snowfall 11.5  
Snow Depth -    
Sea Level Pressure  
Sea Level Pressure 29.73 in    
Wind  
Wind Speed 11 mph (WSW)    
Max Wind Speed 17 mph    
Max Gust Speed 32 mph    
Visibility 9 miles    
Events Rain , Thunderstorm    
T = Trace of Precipitation, MM = Missing Value Source: NWS Daily Summary

Daily Weather History Graph

Daily Weather History Graph

Search for Another Location

Airport:

Trip Planner

Search our weather history database for the weather conditions in past years. The results will help you decide how hot, cold, wet, or windy it might be!

Date:

Astronomy

Apr. 18, 2013 Rise Set
Actual Time 6:34 AM CDT 7:49 PM CDT
Civil Twilight 6:07 AM CDT 8:16 PM CDT
Nautical Twilight 5:36 AM CDT 8:48 PM CDT
Astronomical Twilight 5:02 AM CDT 9:22 PM CDT
Moon 12:48 PM CDT (4/18) 2:02 AM CDT (4/18)
Length of Visible Light 14h 08m
Length of Day
13h 15m
First Quarter, 52% of the Moon is Illuminated
Apr 18
First Quarter
Apr 25
Full
May 2
Last Quarter
May 9
New
May 17
First Quarter

Hourly Weather History & Observations

Time (CDT) Temp. Windchill Dew Point Humidity Pressure Visibility Wind Dir Wind Speed Gust Speed Precip Events Conditions
12:15 AM 73.4 °F - 62.6 °F 69% 29.67 in 10.0 mi SSE 12.7 mph 24.2 mph N/A   Partly Cloudy
12:35 AM 75.2 °F - 62.6 °F 65% 29.69 in 10.0 mi South 10.4 mph 25.3 mph N/A   Partly Cloudy
12:55 AM 75.2 °F - 62.6 °F 65% 29.69 in 10.0 mi South 12.7 mph 19.6 mph N/A   Mostly Cloudy
1:15 AM 75.2 °F - 62.6 °F 65% 29.66 in 10.0 mi SSE 13.8 mph 19.6 mph N/A   Scattered Clouds
1:35 AM 75.2 °F - 62.6 °F 65% 29.65 in 10.0 mi South 13.8 mph 32.2 mph N/A   Partly Cloudy
1:55 AM 73.4 °F - 64.4 °F 73% 29.63 in 10.0 mi SSE 15.0 mph 26.5 mph N/A   Scattered Clouds
2:15 AM 73.4 °F - 64.4 °F 73% 29.61 in 10.0 mi SSE 15.0 mph 24.2 mph N/A   Mostly Cloudy
2:35 AM 73.4 °F - 62.6 °F 69% 29.62 in 10.0 mi South 15.0 mph 25.3 mph N/A   Mostly Cloudy
2:55 AM 75.2 °F - 62.6 °F 65% 29.63 in 10.0 mi South 11.5 mph 25.3 mph N/A   Mostly Cloudy
3:15 AM 75.2 °F - 62.6 °F 65% 29.62 in 10.0 mi SSE 17.3 mph 26.5 mph N/A   Overcast
3:35 AM 75.2 °F - 62.6 °F 65% 29.62 in 10.0 mi South 13.8 mph 24.2 mph N/A   Overcast
3:55 AM 75.2 °F - 62.6 °F 65% 29.62 in 10.0 mi South 9.2 mph 25.3 mph N/A   Overcast
4:15 AM 75.2 °F - 62.6 °F 65% 29.61 in 10.0 mi South 9.2 mph 21.9 mph N/A   Overcast
4:35 AM 75.2 °F - 62.6 °F 65% 29.63 in 10.0 mi SSW 8.1 mph 24.2 mph N/A   Overcast
4:55 AM 68.0 °F - 57.2 °F 68% 29.65 in 10.0 mi NW 8.1 mph - N/A Thunderstorm Overcast
5:15 AM 64.4 °F - 59.0 °F 83% 29.64 in 10.0 mi NNW 6.9 mph - N/A Rain , Thunderstorm Light Rain
5:35 AM 64.4 °F - 59.0 °F 83% 29.64 in 9.0 mi Calm Calm - N/A Rain , Thunderstorm Light Rain
5:55 AM 62.6 °F - 59.0 °F 88% 29.63 in 3.0 mi WNW 4.6 mph - 0.09 in Rain , Thunderstorm Thunderstorms and Rain
6:15 AM 60.8 °F - 60.8 °F 100% 29.63 in 1.0 mi East 6.9 mph - 0.34 in Rain , Thunderstorm Heavy Rain
6:35 AM 60.8 °F - 60.8 °F 100% 29.61 in 2.5 mi NE 6.9 mph - 0.49 in Rain , Thunderstorm Light Thunderstorms and Rain
6:53 AM 60.8 °F - 60.8 °F 100% 29.62 in 1.8 mi NNW 8.1 mph - N/A Rain , Thunderstorm Thunderstorms and Rain
7:45 AM 62.6 °F - 62.6 °F 100% 29.64 in 0.8 mi Calm Calm - N/A Rain , Thunderstorm Heavy Thunderstorms and Rain
8:11 AM 64.4 °F - 64.4 °F 100% 29.65 in 5.0 mi West 6.9 mph 17.3 mph N/A Rain Light Rain
8:45 AM 62.6 °F - 62.6 °F 100% 29.65 in 7.0 mi SSW 4.6 mph - N/A Rain Light Rain
9:45 AM 62.6 °F - 60.8 °F 94% 29.65 in 10.0 mi WSW 15.0 mph 25.3 mph N/A   Overcast
10:45 AM 53.6 °F - 50.0 °F 88% 29.71 in 10.0 mi West 9.2 mph 20.7 mph N/A Rain Light Rain
11:45 AM 46.4 °F 41.9 °F 44.6 °F 93% 29.78 in 4.0 mi West 9.2 mph 31.1 mph N/A Rain Light Rain
12:57 PM 44.6 °F 40.2 °F 41.0 °F 87% 29.76 in 8.0 mi West 8.1 mph - N/A   Overcast
1:45 PM 41.0 °F 34.3 °F 39.2 °F 93% 29.78 in 10.0 mi WNW 11.5 mph 18.4 mph N/A   Overcast
2:46 PM 41.0 °F 35.2 °F 37.4 °F 87% 29.82 in 10.0 mi WNW 9.2 mph 17.3 mph N/A   Overcast
3:46 PM 41.0 °F 34.3 °F 37.4 °F 87% 29.82 in 10.0 mi West 11.5 mph 19.6 mph N/A   Overcast
4:45 PM 41.0 °F 34.3 °F 35.6 °F 81% 29.84 in 10.0 mi WNW 11.5 mph 25.3 mph N/A   Overcast
5:55 PM 41.0 °F 33.5 °F 32.0 °F 70% 29.86 in 10.0 mi NW 13.8 mph 25.3 mph N/A   Overcast
6:55 PM 41.0 °F 32.5 °F 32.0 °F 70% 29.88 in 10.0 mi NW 17.3 mph 28.8 mph N/A   Overcast
7:58 PM 39.2 °F 30.5 °F 30.2 °F 70% 29.90 in 10.0 mi NW 16.1 mph 24.2 mph N/A   Overcast
8:56 PM 39.2 °F 31.2 °F 28.4 °F 65% 29.92 in 10.0 mi NW 13.8 mph 28.8 mph N/A   Overcast
9:55 PM 39.2 °F 30.8 °F 30.2 °F 70% 29.93 in 10.0 mi NW 15.0 mph 20.7 mph N/A   Overcast
10:35 PM 39.2 °F 30.8 °F 30.2 °F 70% 29.94 in 10.0 mi WNW 15.0 mph 24.2 mph N/A   Overcast
10:55 PM 39.2 °F 32.0 °F 28.4 °F 65% 29.94 in 10.0 mi NW 11.5 mph 24.2 mph N/A   Overcast
11:15 PM 39.2 °F 31.6 °F 28.4 °F 65% 29.94 in 10.0 mi WNW 12.7 mph 21.9 mph N/A   Overcast
11:35 PM 39.2 °F 31.6 °F 26.6 °F 61% 29.94 in 10.0 mi WNW 12.7 mph 29.9 mph N/A   Overcast
11:55 PM 39.2 °F 32.0 °F 28.4 °F 65% 29.94 in 10.0 mi WNW 11.5 mph 25.3 mph N/A   Overcast